Location: Catacaguana
(10.4120°N, 66.7591°W)
Time: 04:35:37
(UTC+00:00)

USA 276 - Pass Details

Date: 27 May 2022
Orbit: 349 x 358 km, 50.0° (Epoch: 15 May)

Event Time Altitude Azimuth Distance (km) Brightness Sun altitude
Rises 00:00:19 0° 319° (NW) 2,144 7.1 -17.9°
Reaches altitude 10° 00:02:20 10° 317° (NW) 1,302 5.8 -18.4°
Enters shadow 00:05:12 72° 237° (WSW) 367 1.9 -19.0°
